Погода в Барде

Азербайджан     40°23′01″N   47°07′27″E
темп.,
°C
ветер,
м/с
пор.,
м/с
влажн.,
%
обл.,
%
осадки,
мм/ч
давл.,
гПа
погр.,
м
28 февраля, вс
вс2801:00+7вюв00520 0.0 101822
04:00+6ссв11590 0.0 101722
07:00+4ссз11640 0.0 101722
10:00+9ссз47460 0.0 1016393
13:00+14сз55320 0.0 1014839
16:00+16сз45290 0.0 10121238
19:00+13з23370 0.0 101426
22:00+11з22441 0.0 101526
1 марта, пн
пн101:00+9сз34530 0.0 101674
04:00+8ссз496531 0.0 1016242
07:00+8сз7136392 0.0 1018395
10:00+7зсз9117296 0.0 1020618
13:00+11сз684697 0.0 10211151
16:00+14сз8103195 0.0 10211958
19:00+10з234380 0.0 102374
22:00+8юв596783 0.0 1025310
2 марта, вт
вт201:00+6ююв7108197 0.0 1026661
04:00+5ююв578199 0.0 1026444
07:00+4ю488981 0.0 1028280
10:00+6ююв567890 0.0 1028479
13:00+9юв4363100 0.0 1027841
16:00+9юв326087 0.0 1025960
19:00+7ююв346864 0.0 1025217
22:00+6ююв237639 0.0 102571
3 марта, ср
ср301:00+5зюз12770 0.0 102422
04:00+5сз46780 0.0 1023138
07:00+6зсз714520 0.0 1021419
10:00+8сз1013440 0.0 1020898
13:00+11сз912360 0.0 10181265
16:00+13сз912270 0.0 10161810
19:00+10ссз612330 0.0 1018520
22:00+8сз711410 0.0 1021438
4 марта, чт
чт401:00+7зсз711462 0.0 1022325
04:00+6ссз235228 0.0 102483
07:00+5сз245568 0.0 102675
10:00+9с334534 0.0 1027486
13:00+11св33390 0.0 10261746
16:00+12св22301 0.0 10252049
19:00+9юв675790 0.1 1026982
22:00+7юв697190 0.2 1028758